LEMUR-2-ZO (43886 NORAD) Tracking and Keplerian Element Data

This shows tracking and keplerian element data for the satellite.

Feedback or suggestion? Click here.




ElementValue
Catalog43886
NameLEMUR-2-ZO
Epoch Orbit100
Epoch Day16.20498332
Epoch Year2019
RAAN286.3877
Inclination97.729
Eccentricity0.0011566
Argument of Perigee170.0928
Mean Anonmoly190.0523
Mean Motion14.9654006
Decay Rate2.15E-06
L11 43886U 18111L 19016.20498332 .00000215 00000-0 24010-4 0 9998
L22 43886 97.7290 286.3877 0011566 170.0928 190.0523 14.96540060 1008

Live tracking and technical data element details for LEMUR-2-ZO (NORAD 43886). LEMUR-2-ZO can be tracked NOW for your location showing map with azimuth and elevation plus other details from your city location.

Track the satellite on the map from your city or location and see movement details for azimuth, elevation, latitude, longitude, range, height, and movement on the map or in text.







IsCatalogInMostPopularTable: catalog: 43886, numindb: 15
Update: records affected: 1



GetName: 43886 LEMUR-2-ZO

Hit Count: updated at: Thu, 17 Jan 2019 15:58:26 GMT